| time (UTC) | temp F | wind direction | speed knots | gust knots | rain 1hr in | rain 24hr in | rain mn in | humidity % | barometer mb |
| 20260503232052 | 57 | 189 | 1.7 | 7.8 | 0.00 | 0.00 | 0.00 | 40 | 1016.3 |
| 20260503231550 | 57 | 201 | 4.3 | 7.8 | 0.00 | 0.00 | 0.00 | 39 | 1016.3 |
| 20260503231051 | 57 | 202 | 3.5 | 7.8 | 0.00 | 0.00 | 0.00 | 38 | 1016.3 |
| 20260503230550 | 57 | 201 | 1.7 | 8.7 | 0.00 | 0.00 | 0.00 | 38 | 1016.4 |
| 20260503230053 | 57 | 201 | 1.7 | 8.7 | 0.00 | 0.00 | 0.00 | 38 | 1016.4 |
| 20260503225550 | 57 | 200 | 2.6 | 8.7 | 0.00 | 0.00 | 0.00 | 38 | 1016.4 |
| 20260503225155 | 57 | 0 | 0.0 | 11.3 | 0.00 | 0.00 | 0.00 | 38 | 1016.4 |
| 20260503225053 | 57 | 0 | 0.0 | 11.3 | 0.00 | 0.00 | 0.00 | 38 | 1016.4 |
| 20260503224550 | 57 | 199 | 1.7 | 11.3 | 0.00 | 0.00 | 0.00 | 37 | 1016.4 |
| 20260503224051 | 58 | 195 | 2.6 | 8.7 | 0.00 | 0.00 | 0.00 | 37 | 1016.4 |
| 20260503223550 | 58 | 0 | 0.0 | 4.3 | 0.00 | 0.00 | 0.00 | 35 | 1016.4 |
| 20260503223051 | 58 | 0 | 0.0 | 0.0 | 0.00 | 0.00 | 0.00 | 35 | 1016.4 |
| 20260503222550 | 58 | 0 | 0.0 | 0.0 | 0.00 | 0.00 | 0.00 | 35 | 1016.5 |
| 20260503222051 | 58 | 0 | 0.0 | 4.3 | 0.00 | 0.00 | 0.00 | 34 | 1016.5 |
| 20260503221551 | 58 | 0 | 0.0 | 4.3 | 0.00 | 0.00 | 0.00 | 34 | 1016.6 |
| 20260503221051 | 58 | 0 | 0.0 | 4.3 | 0.00 | 0.00 | 0.00 | 34 | 1016.6 |
| 20260503220550 | 58 | 0 | 0.0 | 5.2 | 0.00 | 0.00 | 0.00 | 35 | 1016.7 |
| 20260503220051 | 58 | 0 | 0.0 | 5.2 | 0.00 | 0.00 | 0.00 | 35 | 1016.8 |
| 20260503215550 | 59 | 0 | 0.0 | 5.2 | 0.00 | 0.00 | 0.00 | 34 | 1016.8 |
| 20260503215054 | 59 | 0 | 0.0 | 4.3 | 0.00 | 0.00 | 0.00 | 36 | 1016.9 |
| 20260503213538 | 59 | 210 | 0.9 | 6.1 | 0.00 | 0.00 | 0.00 | 33 | 1017.0 |
| 20260503213037 | 59 | 0 | 0.0 | 5.2 | 0.00 | 0.00 | 0.00 | 36 | 1017.0 |
| 20260503212537 | 59 | 0 | 0.0 | 5.2 | 0.00 | 0.00 | 0.00 | 32 | 1017.1 |
| 20260503212037 | 59 | 0 | 0.0 | 3.5 | 0.00 | 0.00 | 0.00 | 33 | 1017.1 |
| 20260503211537 | 60 | 0 | 0.0 | 4.3 | 0.00 | 0.00 | 0.00 | 33 | 1017.2 |
| 20260503211037 | 61 | 196 | 0.9 | 4.3 | 0.00 | 0.00 | 0.00 | 32 | 1017.2 |
| 20260503210543 | 61 | 0 | 0.0 | 2.6 | 0.00 | 0.00 | 0.00 | 33 | 1017.2 |
| 20260503210037 | 60 | 0 | 0.0 | 2.6 | 0.00 | 0.00 | 0.00 | 34 | 1017.3 |
| 20260503205537 | 60 | 0 | 0.0 | 4.3 | 0.00 | 0.00 | 0.00 | 33 | 1017.2 |
| 20260503205037 | 60 | 0 | 0.0 | 7.8 | 0.00 | 0.00 | 0.00 | 35 | 1017.3 |
| 20260503204537 | 60 | 194 | 1.7 | 7.8 | 0.00 | 0.00 | 0.00 | 34 | 1017.3 |
| 20260503204037 | 60 | 178 | 0.9 | 7.0 | 0.00 | 0.00 | 0.00 | 33 | 1017.3 |
| 20260503203538 | 61 | 183 | 2.6 | 7.0 | 0.00 | 0.00 | 0.00 | 34 | 1017.3 |
| 20260503203037 | 61 | 289 | 0.9 | 9.6 | 0.00 | 0.00 | 0.00 | 33 | 1017.5 |
| 20260503202537 | 61 | 0 | 0.0 | 9.6 | 0.00 | 0.00 | 0.00 | 34 | 1017.4 |
| 20260503202037 | 61 | 317 | 2.6 | 9.6 | 0.00 | 0.00 | 0.00 | 30 | 1017.5 |
| 20260503201537 | 61 | 0 | 0.0 | 7.0 | 0.00 | 0.00 | 0.00 | 31 | 1017.7 |
| 20260503201038 | 62 | 320 | 1.7 | 8.7 | 0.00 | 0.00 | 0.00 | 31 | 1017.7 |
| 20260503200539 | 61 | 0 | 0.0 | 8.7 | 0.00 | 0.00 | 0.00 | 33 | 1017.7 |
| 20260503200037 | 61 | 0 | 0.0 | 7.8 | 0.00 | 0.00 | 0.00 | 31 | 1017.8 |
| 20260503195537 | 60 | 325 | 0.9 | 7.8 | 0.00 | 0.00 | 0.00 | 32 | 1017.8 |
| 20260503195037 | 60 | 0 | 0.0 | 7.0 | 0.00 | 0.00 | 0.00 | 32 | 1018.0 |
| 20260503194537 | 59 | 0 | 0.0 | 7.8 | 0.00 | 0.00 | 0.00 | 34 | 1018.0 |
| 20260503194037 | 58 | 321 | 1.7 | 8.7 | 0.00 | 0.00 | 0.00 | 34 | 1018.0 |
| 20260503193537 | 59 | 329 | 3.5 | 8.7 | 0.00 | 0.00 | 0.00 | 32 | 1018.1 |
| 20260503193037 | 59 | 330 | 0.9 | 9.6 | 0.00 | 0.00 | 0.00 | 32 | 1018.2 |
| 20260503192537 | 59 | 332 | 3.5 | 9.6 | 0.00 | 0.00 | 0.00 | 31 | 1018.1 |
| 20260503192037 | 59 | 333 | 1.7 | 8.7 | 0.00 | 0.00 | 0.00 | 31 | 1018.2 |
| 20260503191537 | 60 | 329 | 3.5 | 8.7 | 0.00 | 0.00 | 0.00 | 32 | 1018.2 |
| 20260503191037 | 60 | 316 | 0.9 | 8.7 | 0.00 | 0.00 | 0.00 | 31 | 1018.2 |
| 20260503190538 | 60 | 292 | 1.7 | 8.7 | 0.00 | 0.00 | 0.00 | 32 | 1018.4 |
| 20260503190028 | 59 | 311 | 3.5 | 11.3 | 0.00 | 0.00 | 0.00 | 31 | 1018.5 |
| 20260503185531 | 59 | 285 | 1.7 | 12.2 | 0.00 | 0.00 | 0.00 | 32 | 1018.4 |
| 20260503185029 | 59 | 294 | 0.9 | 12.2 | 0.00 | 0.00 | 0.00 | 34 | 1018.6 |
| 20260503184530 | 58 | 348 | 1.7 | 10.4 | 0.00 | 0.00 | 0.00 | 37 | 1018.7 |
| 20260503184029 | 57 | 348 | 1.7 | 9.6 | 0.00 | 0.00 | 0.00 | 36 | 1018.7 |
| 20260503183529 | 57 | 332 | 3.5 | 9.6 | 0.00 | 0.00 | 0.00 | 36 | 1018.8 |
| 20260503183029 | 57 | 327 | 0.9 | 7.8 | 0.00 | 0.00 | 0.00 | 37 | 1018.9 |
| 20260503182534 | 57 | 327 | 0.9 | 7.8 | 0.00 | 0.00 | 0.00 | 37 | 1019.0 |
| 20260503182029 | 57 | 327 | 2.6 | 8.7 | 0.00 | 0.00 | 0.00 | 34 | 1019.0 |
| 20260503181528 | 57 | 0 | 0.0 | 8.7 | 0.00 | 0.00 | 0.00 | 36 | 1019.2 |
| 20260503181029 | 57 | 339 | 1.7 | 8.7 | 0.00 | 0.00 | 0.00 | 33 | 1019.2 |
| 20260503180534 | 58 | 7 | 1.7 | 5.2 | 0.00 | 0.00 | 0.00 | 34 | 1019.3 |
| 20260503180028 | 57 | 0 | 0.0 | 4.3 | 0.00 | 0.00 | 0.00 | 35 | 1019.3 |
| 20260503175529 | 56 | 0 | 0.0 | 13.9 | 0.00 | 0.00 | 0.00 | 36 | 1019.4 |
| 20260503175029 | 56 | 0 | 0.0 | 13.9 | 0.00 | 0.00 | 0.00 | 35 | 1019.3 |
| 20260503174529 | 56 | 0 | 0.0 | 7.8 | 0.00 | 0.00 | 0.00 | 36 | 1019.5 |
| 20260503174028 | 56 | 0 | 0.0 | 7.0 | 0.00 | 0.00 | 0.00 | 36 | 1019.4 |
| 20260503173529 | 56 | 290 | 2.6 | 7.0 | 0.00 | 0.00 | 0.00 | 35 | 1019.4 |
| 20260503171836 | 55 | 9 | 0.9 | 7.8 | 0.00 | 0.00 | 0.00 | 38 | 1019.4 |
| 20260503170807 | 54 | 329 | 0.9 | 9.6 | 0.00 | 0.00 | 0.00 | 38 | 1019.6 |
| 20260503170311 | 53 | 0 | 0.0 | 7.8 | 0.00 | 0.00 | 0.00 | 37 | 1019.8 |
| 20260503150807 | 49 | 320 | 1.7 | 11.3 | 0.00 | 0.00 | 0.00 | 48 | 1020.6 |
| 20260503150307 | 49 | 328 | 2.6 | 8.7 | 0.00 | 0.00 | 0.00 | 48 | 1020.6 |
| 20260503130746 | 44 | 9 | 0.9 | 8.7 | 0.00 | 0.00 | 0.00 | 64 | 1019.9 |
| 20260503130246 | 43 | 320 | 1.7 | 13.0 | 0.00 | 0.00 | 0.00 | 64 | 1019.9 |
| 20260503110745 | 40 | 339 | 0.9 | 13.9 | 0.00 | 0.00 | 0.00 | 72 | 1018.7 |
| 20260503110245 | 40 | 351 | 2.6 | 11.3 | 0.00 | 0.00 | 0.00 | 72 | 1018.7 |
| 20260503100245 | 39 | 331 | 1.7 | 9.6 | 0.00 | 0.00 | 0.00 | 72 | 1017.7 |
| 20260503090245 | 40 | 0 | 0.0 | 7.0 | 0.00 | 0.00 | 0.00 | 69 | 1017.5 |
| 20260503081246 | 41 | 0 | 0.0 | 7.8 | 0.00 | 0.00 | 0.00 | 67 | 1017.0 |
| 20260503080745 | 41 | 0 | 0.0 | 7.8 | 0.00 | 0.00 | 0.00 | 67 | 1017.0 |
| 20260503080245 | 41 | 0 | 0.0 | 11.3 | 0.00 | 0.00 | 0.00 | 67 | 1016.9 |
| 20260503072744 | 41 | 316 | 3.5 | 13.0 | 0.00 | 0.00 | 0.00 | 66 | 1016.5 |
| 20260503072244 | 41 | 332 | 0.9 | 12.2 | 0.00 | 0.00 | 0.00 | 67 | 1016.5 |
| 20260503071744 | 41 | 343 | 1.7 | 12.2 | 0.00 | 0.00 | 0.00 | 67 | 1016.4 |
| 20260503071244 | 41 | 321 | 0.9 | 8.7 | 0.00 | 0.00 | 0.00 | 68 | 1016.4 |
| 20260503070744 | 41 | 319 | 2.6 | 9.6 | 0.00 | 0.00 | 0.00 | 67 | 1016.4 |
| 20260503070245 | 41 | 326 | 3.5 | 9.6 | 0.00 | 0.00 | 0.00 | 67 | 1016.3 |
| 20260503060246 | 42 | 326 | 1.7 | 7.0 | 0.00 | 0.00 | 0.00 | 65 | 1016.0 |
| 20260503054731 | 42 | 333 | 1.7 | 7.0 | 0.00 | 0.00 | 0.00 | 66 | 1016.0 |
| 20260503054231 | 42 | 336 | 1.7 | 5.2 | 0.00 | 0.00 | 0.00 | 65 | 1016.0 |
| 20260503053731 | 43 | 345 | 1.7 | 7.8 | 0.00 | 0.00 | 0.00 | 65 | 1016.0 |
| 20260503053231 | 43 | 318 | 1.7 | 7.8 | 0.00 | 0.00 | 0.00 | 65 | 1016.0 |
| 20260503052731 | 43 | 333 | 0.9 | 8.7 | 0.00 | 0.00 | 0.00 | 65 | 1016.1 |
| 20260503052231 | 43 | 329 | 3.5 | 12.2 | 0.00 | 0.00 | 0.00 | 65 | 1016.0 |
| 20260503051731 | 43 | 315 | 1.7 | 12.2 | 0.00 | 0.00 | 0.00 | 64 | 1016.1 |
| 20260503051231 | 43 | 317 | 1.7 | 10.4 | 0.00 | 0.00 | 0.00 | 64 | 1016.1 |
| 20260503050731 | 43 | 316 | 2.6 | 10.4 | 0.00 | 0.00 | 0.00 | 64 | 1016.0 |
| 20260503050231 | 43 | 0 | 0.0 | 10.4 | 0.00 | 0.00 | 0.00 | 64 | 1016.0 |
| 20260503045252 | 43 | 328 | 6.1 | 13.9 | 0.00 | 0.00 | 0.00 | 64 | 1015.9 |
| 20260503044752 | 43 | 337 | 3.5 | 11.3 | 0.00 | 0.00 | 0.00 | 63 | 1015.9 |
| 20260503044256 | 43 | 338 | 2.6 | 12.2 | 0.00 | 0.00 | 0.00 | 63 | 1015.9 |
| 20260503043752 | 43 | 338 | 7.0 | 13.0 | 0.00 | 0.00 | 0.00 | 63 | 1015.8 |
| 20260503043252 | 43 | 334 | 5.2 | 13.0 | 0.00 | 0.00 | 0.00 | 63 | 1015.7 |
| 20260503042752 | 43 | 314 | 4.3 | 11.3 | 0.00 | 0.00 | 0.00 | 63 | 1015.7 |
| 20260503042257 | 44 | 323 | 3.5 | 13.0 | 0.00 | 0.00 | 0.00 | 62 | 1015.7 |
| 20260503041752 | 44 | 328 | 6.1 | 13.0 | 0.00 | 0.00 | 0.00 | 62 | 1015.7 |
| 20260503041252 | 44 | 357 | 2.6 | 8.7 | 0.00 | 0.00 | 0.00 | 62 | 1015.7 |
| 20260503040756 | 44 | 319 | 0.9 | 7.8 | 0.00 | 0.00 | 0.00 | 61 | 1015.8 |
| 20260503040252 | 44 | 0 | 0.0 | 7.8 | 0.00 | 0.00 | 0.00 | 62 | 1015.6 |
| 20260503035752 | 44 | 326 | 1.7 | 7.8 | 0.00 | 0.00 | 0.00 | 61 | 1015.6 |
| 20260503035252 | 44 | 323 | 0.9 | 7.0 | 0.00 | 0.00 | 0.00 | 61 | 1015.7 |
| 20260503034752 | 45 | 322 | 2.6 | 7.0 | 0.00 | 0.00 | 0.00 | 60 | 1015.6 |
| 20260503034255 | 45 | 324 | 1.7 | 5.2 | 0.00 | 0.00 | 0.00 | 60 | 1015.6 |
| 20260503033754 | 45 | 331 | 0.9 | 9.6 | 0.00 | 0.00 | 0.00 | 60 | 1015.6 |
| 20260503033252 | 45 | 0 | 0.0 | 9.6 | 0.00 | 0.00 | 0.00 | 60 | 1015.5 |
| 20260503032752 | 45 | 319 | 0.9 | 7.8 | 0.00 | 0.00 | 0.00 | 59 | 1015.4 |
| 20260503032252 | 45 | 319 | 0.9 | 7.8 | 0.00 | 0.00 | 0.00 | 59 | 1016.3 |
| 20260503031752 | 45 | 309 | 0.9 | 5.2 | 0.00 | 0.00 | 0.00 | 59 | 1016.3 |
| 20260503031252 | 45 | 327 | 0.9 | 10.4 | 0.00 | 0.00 | 0.00 | 59 | 1016.3 |
| 20260503030752 | 45 | 0 | 0.0 | 10.4 | 0.00 | 0.00 | 0.00 | 60 | 1016.2 |
| 20260503030253 | 45 | 337 | 1.7 | 5.2 | 0.00 | 0.00 | 0.00 | 59 | 1016.2 |
| 20260503025349 | 45 | 317 | 2.6 | 11.3 | 0.00 | 0.00 | 0.00 | 59 | 1016.1 |
| 20260503024849 | 45 | 342 | 2.6 | 9.6 | 0.00 | 0.00 | 0.00 | 60 | 1016.1 |
| 20260503024349 | 46 | 343 | 2.6 | 9.6 | 0.00 | 0.00 | 0.00 | 60 | 1016.1 |
| 20260503023851 | 46 | 328 | 3.5 | 9.6 | 0.00 | 0.00 | 0.00 | 60 | 1016.0 |
| 20260503023349 | 45 | 329 | 3.5 | 9.6 | 0.00 | 0.00 | 0.00 | 59 | 1016.1 |
| 20260503022849 | 46 | 316 | 0.9 | 7.0 | 0.00 | 0.00 | 0.00 | 59 | 1016.0 |
| 20260503022351 | 46 | 332 | 0.9 | 7.0 | 0.00 | 0.00 | 0.00 | 58 | 1016.1 |
| 20260503021838 | 46 | 335 | 0.9 | 8.7 | 0.00 | 0.00 | 0.00 | 59 | 1016.1 |
| 20260503021338 | 46 | 326 | 1.7 | 10.4 | 0.00 | 0.00 | 0.00 | 59 | 1016.0 |
| 20260503020837 | 46 | 323 | 3.5 | 10.4 | 0.00 | 0.00 | 0.00 | 58 | 1015.8 |
| 20260503020337 | 46 | 297 | 2.6 | 9.6 | 0.00 | 0.00 | 0.00 | 58 | 1015.8 |
| 20260503015839 | 46 | 337 | 2.6 | 9.6 | 0.00 | 0.00 | 0.00 | 59 | 1015.7 |
| 20260503015338 | 46 | 315 | 2.6 | 9.6 | 0.00 | 0.00 | 0.00 | 59 | 1015.6 |
| 20260503014837 | 46 | 344 | 3.5 | 9.6 | 0.00 | 0.00 | 0.00 | 59 | 1015.6 |
| 20260503014337 | 46 | 332 | 0.9 | 9.6 | 0.00 | 0.00 | 0.00 | 58 | 1015.6 |
| 20260503013837 | 46 | 332 | 2.6 | 11.3 | 0.00 | 0.00 | 0.00 | 58 | 1015.6 |
| 20260503013337 | 47 | 335 | 1.7 | 11.3 | 0.00 | 0.00 | 0.00 | 58 | 1015.5 |
| 20260503012837 | 47 | 322 | 1.7 | 16.5 | 0.00 | 0.00 | 0.00 | 58 | 1015.4 |
| 20260503012338 | 47 | 350 | 4.3 | 16.5 | 0.00 | 0.00 | 0.00 | 56 | 1015.3 |
| 20260503011837 | 47 | 332 | 5.2 | 13.9 | 0.00 | 0.00 | 0.00 | 55 | 1015.2 |
| 20260503011336 | 47 | 324 | 5.2 | 13.0 | 0.00 | 0.00 | 0.00 | 57 | 1015.2 |
| 20260503010838 | 47 | 319 | 1.7 | 7.0 | 0.00 | 0.00 | 0.00 | 57 | 1015.1 |
| 20260503010338 | 48 | 324 | 1.7 | 9.6 | 0.00 | 0.00 | 0.00 | 56 | 1015.1 |
| 20260503005837 | 48 | 324 | 3.5 | 9.6 | 0.00 | 0.00 | 0.00 | 55 | 1015.0 |
| 20260503005337 | 48 | 324 | 2.6 | 8.7 | 0.00 | 0.00 | 0.00 | 55 | 1015.0 |
| 20260503004837 | 48 | 329 | 3.5 | 8.7 | 0.00 | 0.00 | 0.00 | 54 | 1015.0 |
| 20260503004337 | 49 | 10 | 0.9 | 10.4 | 0.00 | 0.00 | 0.00 | 55 | 1014.8 |
| 20260503003836 | 49 | 319 | 3.5 | 11.3 | 0.00 | 0.00 | 0.00 | 53 | 1014.8 |
| 20260503003337 | 49 | 315 | 4.3 | 11.3 | 0.00 | 0.00 | 0.00 | 53 | 1014.7 |
| 20260503002837 | 49 | 324 | 2.6 | 8.7 | 0.00 | 0.00 | 0.00 | 53 | 1014.6 |
| 20260503002340 | 50 | 322 | 1.7 | 8.7 | 0.00 | 0.00 | 0.00 | 53 | 1014.5 |
| 20260503001839 | 50 | 340 | 2.6 | 10.4 | 0.00 | 0.00 | 0.00 | 53 | 1014.4 |
| 20260503001338 | 50 | 338 | 3.5 | 10.4 | 0.00 | 0.00 | 0.00 | 52 | 1014.3 |
| 20260503000837 | 50 | 352 | 1.7 | 7.8 | 0.00 | 0.00 | 0.00 | 53 | 1014.3 |
| 20260503000337 | 51 | 0 | 0.0 | 7.0 | 0.00 | 0.00 | 0.00 | 53 | 1014.2 |
| 20260502235841 | 51 | 0 | 0.0 | 7.0 | 0.00 | 0.00 | 0.00 | 52 | 1014.1 |
| 20260502235341 | 52 | 6 | 1.7 | 9.6 | 0.00 | 0.00 | 0.00 | 52 | 1014.1 |
| 20260502234836 | 52 | 317 | 1.7 | 9.6 | 0.00 | 0.00 | 0.00 | 51 | 1014.0 |
| 20260502234338 | 52 | 0 | 0.0 | 8.7 | 0.00 | 0.00 | 0.00 | 51 | 1013.9 |
| 20260502233841 | 52 | 328 | 0.9 | 8.7 | 0.00 | 0.00 | 0.00 | 50 | 1013.8 |
| 20260502233338 | 52 | 307 | 2.6 | 8.7 | 0.00 | 0.00 | 0.00 | 50 | 1013.8 |
| 20260502232838 | 52 | 306 | 0.9 | 8.7 | 0.00 | 0.00 | 0.00 | 51 | 1013.8 |
| 20260502232338 | 52 | 319 | 0.9 | 7.0 | 0.00 | 0.00 | 0.00 | 52 | 1013.7 |